📊 Raw Sensor Data

Showing records 38926 to 38950 of 84,937 total

ID Distance (ft) Battery V Battery A Int Temp (°F) Int Humid (%) Ext Temp (°F) Solar V RSSI SNR Time Stamp
46024 15.4 4.04 9 95 55 89 4.60 -72 7 07/11/2025 07:45 PM
46023 15.5 4.05 7 100 53 93 4.50 -73 8 07/11/2025 07:30 PM
46022 15.5 4.04 0 102 52 97 4.60 -72 7 07/11/2025 07:15 PM
46021 15.5 4.03 24 104 52 98 4.50 -72 7 07/11/2025 07:00 PM
46020 15.5 4.09 31 106 52 99 4.60 -72 6 07/11/2025 06:45 PM
46019 15.5 3.99 5 107 51 101 5.10 -71 8 07/11/2025 06:30 PM
46018 15.5 4.03 0 107 51 100 5.10 -71 9 07/11/2025 06:15 PM
46017 15.5 3.99 5 108 51 101 5.10 -71 8 07/11/2025 06:00 PM
46016 15.5 3.99 5 109 51 97 5.10 -72 8 07/11/2025 05:45 PM
46015 15.5 3.99 0 111 51 100 5.10 -72 8 07/11/2025 05:30 PM
46014 15.6 3.99 5 113 50 101 5.10 -72 8 07/11/2025 05:15 PM
46013 15.6 4.03 5 115 49 103 5.10 -71 8 07/11/2025 05:00 PM
46012 15.6 4.11 0 116 47 107 5.10 -72 8 07/11/2025 04:45 PM
46011 15.6 3.99 5 117 46 110 5.10 -71 7 07/11/2025 04:30 PM
46010 15.6 4.02 5 116 46 108 5.20 -70 7 07/11/2025 04:15 PM
46009 15.6 3.99 5 115 46 108 5.10 -72 8 07/11/2025 04:00 PM
46008 15.6 3.99 0 115 45 106 5.10 -72 8 07/11/2025 03:45 PM
46007 15.6 4.13 0 114 45 108 5.20 -72 8 07/11/2025 03:30 PM
46006 15.6 3.99 0 113 44 106 5.20 -71 8 07/11/2025 03:15 PM
46005 15.6 3.99 0 113 43 106 5.20 -72 8 07/11/2025 03:00 PM
46004 15.6 3.99 5 112 43 105 5.20 -70 7 07/11/2025 02:45 PM
46003 15.6 4.01 5 111 42 104 5.20 -71 8 07/11/2025 02:30 PM
46002 15.5 3.99 0 109 42 103 5.10 -71 8 07/11/2025 02:15 PM
46001 15.6 4.11 5 108 42 101 5.10 -70 8 07/11/2025 02:00 PM
46000 15.6 4.04 0 106 43 100 5.10 -71 8 07/11/2025 01:45 PM